[[{"header":{"parameterUnit":"m.s-1","parameterCategory":1,"la1":30.2991,"la2":30.254,"lo1":-89.0895,"lo2":-89.0444,"dx":0.0017,"dy":0.0017,"nx":28,"ny":28,"refTime":"2022-12-16T15:00:00:Z","depth":0,"parameterNumber":2,"parameterNumberName":"U-component_of_WINDS"},"data":[0,0,0,0,0,0,0,0,0,0,0,0,0,0,0,0,0,0,0,0,0,0,0,0,0,0,0,0,0,0,0,0,0,0,0,0,0,0,0,0,0,0,0,0,0,0,0,0,0,0,0,0,0,0,0,0,0,0,-0.173,-0.173,0,-0.1728,-0.1728,-0.1728,-0.1707,-0.1706,-0.1705,-0.1705,-0.1705,-0.1706,-0.1706,0,0,0,0,0,0,0,0,0,0,0,0,0,-0.1714,-0.1714,-0.173,-0.173,-0.173,-0.1728,-0.1728,-0.1728,-0.1707,-0.1706,-0.1705,-0.1705,-0.1705,-0.1705,-0.1706,0,0,0,0,0,0,0,0,0,0,0,0,0,-0.1717,-0.1714,-0.173,-0.1719,-0.1718,-0.1728,-0.1728,-0.1728,-0.1707,-0.1706,-0.1705,-0.1704,-0.1705,-0.1705,-0.1706,-0.1728,0,0,-0.1709,-0.1709,0,0,0,0,0,0,0,0,-0.1717,-0.1718,-0.172,-0.1719,-0.1718,-0.1717,-0.1723,-0.1728,-0.1707,-0.1711,-0.1705,-0.1704,-0.171,-0.171,-0.1712,-0.1728,-0.1728,-0.1709,-0.1709,-0.1709,-0.171,0,0,0,0,0,0,0,-0.1717,-0.1718,-0.1729,-0.172,-0.1719,-0.1714,-0.1713,-0.1724,-0.1715,-0.1711,-0.1709,-0.1709,-0.1709,-0.1711,-0.1711,-0.1728,-0.1709,-0.1709,-0.171,-0.171,-0.1761,-0.1762,0,0,0,0,0,0,-0.1718,-0.1718,-0.1729,-0.1729,-0.1716,-0.1715,-0.1714,-0.1718,-0.1715,-0.1714,-0.171,-0.1708,-0.171,-0.1711,-0.1711,-0.1736,-0.1709,-0.171,-0.1711,-0.176,-0.1761,-0.1762,0,0,0,0,0,0,-0.1718,-0.1719,-0.1729,-0.1723,-0.1724,-0.1716,-0.172,-0.1718,-0.172,-0.1714,-0.1713,-0.1713,-0.1709,-0.171,-0.1724,-0.1736,-0.1711,-0.1711,-0.1759,-0.176,-0.1761,-0.1786,0,0,0,0,0,0,-0.1718,-0.1719,-0.1728,-0.1723,-0.1724,-0.1741,-0.1721,-0.1719,-0.1722,-0.1719,-0.1717,-0.1716,-0.1709,-0.1723,-0.1724,-0.1737,-0.1712,-0.1758,-0.1759,-0.1761,-0.1784,-0.1788,-0.1792,0,0,0,0,0,-0.1717,-0.1735,-0.1728,-0.173,-0.1734,-0.1742,-0.1743,-0.1734,-0.1723,-0.1731,-0.1727,-0.1716,-0.1734,-0.1724,-0.1726,-0.1739,-0.1757,-0.1759,-0.1761,-0.1783,-0.1787,-0.1792,0,0,0,0,0,0,-0.1742,-0.1735,-0.1727,-0.1744,-0.1744,-0.1739,-0.1749,-0.1739,-0.1743,-0.174,-0.1729,-0.1729,-0.1744,-0.1742,-0.1731,-0.1759,-0.1743,-0.1746,-0.1759,-0.1764,-0.1768,-0.1768,-0.1713,0,0,0,0,0,-0.1749,-0.1756,-0.1749,-0.1765,-0.1765,-0.1757,-0.176,-0.1753,-0.1753,-0.1753,-0.1749,-0.175,-0.1755,-0.1759,-0.1764,-0.1783,-0.1783,-0.1793,-0.1797,-0.18,-0.1802,-0.1812,-0.1816,-0.1768,-0.1768,-0.1768,0,0,-0.1765,-0.1762,-0.1767,-0.177,-0.1769,-0.1776,-0.1757,-0.1766,-0.1771,-0.1754,-0.1766,-0.1764,-0.1763,-0.178,-0.1787,-0.1779,-0.1815,-0.1802,-0.1805,-0.1806,-0.1814,-0.1819,-0.1823,-0.177,-0.1769,-0.1769,0,0,-0.1798,-0.1796,-0.1808,-0.1807,-0.1806,-0.18,-0.1803,-0.1799,-0.1796,-0.1808,-0.1795,-0.1801,-0.1811,-0.1811,-0.1812,-0.1843,-0.1833,-0.1845,-0.1864,-0.1873,-0.1877,-0.1881,-0.1891,-0.1896,-0.1847,-0.1847,-0.1847,0,-0.1818,-0.1828,-0.1816,-0.1826,-0.1827,-0.1811,-0.1823,-0.1823,-0.1824,-0.1825,-0.1816,-0.1827,-0.1826,-0.1842,-0.1849,-0.1851,-0.1854,-0.1845,-0.1878,-0.1881,-0.1884,-0.1894,-0.1898,-0.1848,-0.1848,-0.1848,-0.1848,0,-0.1852,-0.1859,-0.187,-0.187,-0.1872,-0.1884,-0.1874,-0.1878,-0.187,-0.1865,-0.1877,-0.1874,-0.1878,-0.188,-0.1873,-0.1895,-0.189,-0.1879,-0.1864,-0.189,-0.1899,-0.1903,-0.185,-0.185,-0.185,-0.1849,0,0,-0.1902,-0.1894,-0.1898,-0.1898,-0.1894,-0.1899,-0.1909,-0.1912,-0.1916,-0.1916,-0.1924,-0.1932,-0.1922,-0.1923,-0.1915,-0.1923,-0.1948,-0.1912,-0.1911,-0.1919,-0.1971,-0.198,-0.1984,-0.194,-0.1941,-0.1942,-0.1971,0,-0.1934,-0.195,-0.1939,-0.1957,-0.1964,-0.1947,-0.1956,-0.1954,-0.1949,-0.1954,-0.1948,-0.1954,-0.194,-0.1941,-0.1948,-0.1943,-0.1958,-0.1941,-0.1948,-0.1949,-0.195,-0.1989,-0.1999,-0.2027,-0.1975,-0.1975,-0.1976,0,-0.1973,-0.1974,-0.1993,-0.1986,-0.1989,-0.1997,-0.1998,-0.2002,-0.2,-0.1996,-0.1997,-0.1986,-0.1995,-0.1979,-0.1992,-0.198,-0.1982,-0.198,-0.1981,-0.1982,-0.1965,-0.1992,-0.2035,-0.204,-0.1981,-0.1981,-0.1981,0,-0.2008,-0.2014,-0.2025,-0.2025,-0.2018,-0.2024,-0.2022,-0.2018,-0.202,-0.2021,-0.2023,-0.2025,-0.2026,-0.2028,-0.2018,-0.2008,-0.2032,-0.2015,-0.2029,-0.2029,-0.2036,-0.2036,-0.2081,-0.2036,-0.2036,-0.2036,-0.2036,0,-0.2044,-0.2057,-0.2041,-0.2048,-0.2061,-0.2048,-0.2061,-0.2057,-0.2054,-0.206,-0.2045,-0.2052,-0.2038,-0.2043,-0.2035,-0.2047,-0.2047,-0.2044,-0.2042,-0.2046,-0.2046,-0.2048,-0.2046,-0.2037,-0.2037,-0.2037,-0.2036,0,-0.2086,-0.2076,-0.2088,-0.2079,-0.2078,-0.2088,-0.2081,-0.2087,-0.208,-0.2088,-0.2089,-0.2079,-0.2084,-0.2074,-0.2077,-0.2072,-0.2088,-0.2083,-0.2089,-0.2088,-0.2102,-0.2101,-0.215,-0.2156,-0.2107,-0.2108,-0.2108,0,-0.2111,-0.2119,-0.2112,-0.2114,-0.2112,-0.2117,-0.2119,-0.2106,-0.2108,-0.2105,-0.2112,-0.2115,-0.2117,-0.2125,-0.2118,-0.212,-0.2115,-0.2132,-0.2116,-0.2119,-0.2116,-0.2116,-0.2117,-0.2136,-0.2137,-0.2137,-0.2138,0,-0.2155,-0.2149,-0.2152,-0.2153,-0.2155,-0.2155,-0.2154,-0.2157,-0.2143,-0.2146,-0.215,-0.2152,-0.2154,-0.2158,-0.2158,-0.2155,-0.2144,-0.2143,-0.2146,-0.215,-0.2154,-0.2152,-0.2099,-0.2142,-0.2141,-0.2141,-0.2141,-0.2141,-0.219,-0.2196,-0.2192,-0.2195,-0.2192,-0.2191,-0.2197,-0.219,-0.2193,-0.2194,-0.2186,-0.2192,-0.2188,-0.2187,-0.2185,-0.219,-0.2182,-0.2187,-0.2188,-0.219,-0.2192,-0.2152,-0.219,-0.2189,-0.2189,-0.2189,-0.2189,0,-0.2234,-0.2229,-0.2232,-0.2231,-0.2233,-0.2221,-0.2219,-0.2222,-0.2227,-0.2224,-0.2226,-0.223,-0.2233,-0.2225,-0.2227,-0.2232,-0.2226,-0.2232,-0.2232,-0.2232,-0.2199,-0.2196,-0.2237,-0.2237,-0.2236,-0.2236,-0.2236,-0.2236,-0.2257,-0.2268,-0.2261,-0.227,-0.2266,-0.2271,-0.227,-0.2269,-0.2267,-0.2272,-0.2274,-0.2269,-0.2264,-0.2264,-0.2266,-0.2264,-0.2265,-0.2273,-0.2269,-0.2239,-0.2234,-0.223,-0.2227,-0.2274,-0.2274,-0.2302,-0.2302,-0.2302]},{"header":{"parameterUnit":"m.s-1","parameterCategory":1,"la1":30.2991,"la2":30.254,"lo1":-89.0895,"lo2":-89.0444,"dx":0.0017,"dy":0.0017,"nx":28,"ny":28,"refTime":"2022-12-16T15:00:00:Z","depth":0,"parameterNumber":3,"parameterNumberName":"V-component_of_WINDS"},"data":[0,0,0,0,0,0,0,0,0,0,0,0,0,0,0,0,0,0,0,0,0,0,0,0,0,0,0,0,0,0,0,0,0,0,0,0,0,0,0,0,0,0,0,0,0,0,0,0,0,0,0,0,0,0,0,0,0,0,-3.2503,-3.2504,0,-3.2603,-3.2604,-3.2605,-3.2564,-3.2562,-3.2559,-3.2557,-3.2658,-3.2663,-3.2668,0,0,0,0,0,0,0,0,0,0,0,0,0,-3.2274,-3.2278,-3.2502,-3.2504,-3.2505,-3.2603,-3.2604,-3.2606,-3.2564,-3.2561,-3.2559,-3.2556,-3.2657,-3.2663,-3.2668,0,0,0,0,0,0,0,0,0,0,0,0,0,-3.2374,-3.228,-3.2502,-3.2496,-3.2497,-3.2603,-3.2604,-3.2606,-3.2565,-3.2561,-3.2558,-3.2554,-3.2655,-3.2662,-3.2669,-3.2787,0,0,-3.2692,-3.2695,0,0,0,0,0,0,0,0,-3.2368,-3.2382,-3.2496,-3.2497,-3.2497,-3.2567,-3.2561,-3.2667,-3.2566,-3.2539,-3.2557,-3.2553,-3.2631,-3.264,-3.2667,-3.2792,-3.2796,-3.2693,-3.2697,-3.27,-3.2702,0,0,0,0,0,0,0,-3.2361,-3.2378,-3.2542,-3.2497,-3.2499,-3.2488,-3.2498,-3.2581,-3.2604,-3.2541,-3.2538,-3.2551,-3.2631,-3.266,-3.2669,-3.2797,-3.2692,-3.2699,-3.2703,-3.2706,-3.3026,-3.303,0,0,0,0,0,0,-3.2354,-3.2372,-3.2539,-3.2545,-3.2423,-3.2495,-3.2507,-3.2549,-3.2603,-3.2608,-3.2554,-3.2549,-3.2649,-3.266,-3.2672,-3.2815,-3.27,-3.2707,-3.2711,-3.3022,-3.3027,-3.3031,0,0,0,0,0,0,-3.235,-3.237,-3.2535,-3.2458,-3.2478,-3.2503,-3.255,-3.2552,-3.2581,-3.2612,-3.2616,-3.2579,-3.2646,-3.2662,-3.2759,-3.2818,-3.271,-3.2717,-3.3017,-3.3023,-3.3029,-3.3101,0,0,0,0,0,0,-3.2343,-3.2368,-3.2413,-3.2459,-3.2483,-3.2621,-3.2554,-3.2557,-3.2595,-3.2589,-3.2637,-3.2642,-3.2645,-3.2748,-3.2767,-3.2826,-3.2723,-3.3012,-3.302,-3.3027,-3.3094,-3.3109,-3.3122,0,0,0,0,0,-3.2335,-3.2428,-3.2416,-3.2436,-3.2539,-3.2624,-3.2637,-3.2639,-3.2599,-3.2645,-3.2665,-3.2641,-3.2808,-3.2759,-3.2779,-3.2842,-3.3008,-3.3018,-3.3026,-3.3087,-3.3106,-3.3122,0,0,0,0,0,0,-3.2388,-3.2434,-3.2421,-3.2532,-3.2575,-3.2617,-3.2674,-3.2658,-3.2713,-3.2705,-3.2704,-3.2716,-3.2817,-3.2838,-3.2782,-3.2959,-3.2902,-3.2916,-3.2942,-3.296,-3.2973,-3.2967,-3.2729,0,0,0,0,0,-3.2412,-3.2477,-3.2515,-3.2609,-3.2631,-3.2649,-3.2686,-3.2684,-3.2728,-3.2746,-3.2773,-3.2816,-3.2879,-3.292,-3.2979,-3.3096,-3.3107,-3.3149,-3.3163,-3.3175,-3.3187,-3.3252,-3.3272,-3.3061,-3.3061,-3.3061,0,0,-3.2463,-3.2497,-3.2538,-3.2621,-3.2653,-3.2721,-3.2665,-3.2738,-3.2789,-3.2757,-3.2851,-3.2873,-3.2921,-3.3029,-3.3078,-3.3051,-3.3248,-3.3186,-3.3195,-3.3201,-3.3264,-3.3284,-3.3302,-3.3067,-3.3066,-3.3065,0,0,-3.2592,-3.2623,-3.2707,-3.2741,-3.2792,-3.2804,-3.2824,-3.2869,-3.2883,-3.2978,-3.2956,-3.3015,-3.3123,-3.3159,-3.3191,-3.3335,-3.3315,-3.3354,-3.3429,-3.3493,-3.3509,-3.3524,-3.3578,-3.3596,-3.3366,-3.3366,-3.3366,0,-3.2649,-3.2751,-3.2751,-3.2828,-3.2865,-3.284,-3.2925,-3.2958,-3.3025,-3.3052,-3.302,-3.3156,-3.3186,-3.3304,-3.3339,-3.3366,-3.3389,-3.3349,-3.3507,-3.3522,-3.3536,-3.3587,-3.3606,-3.3371,-3.337,-3.337,-3.3369,0,-3.282,-3.2891,-3.2952,-3.302,-3.3064,-3.3144,-3.3156,-3.3201,-3.3195,-3.321,-3.3308,-3.3344,-3.3411,-3.3438,-3.3433,-3.3556,-3.3537,-3.3506,-3.3449,-3.356,-3.3608,-3.3628,-3.3377,-3.3376,-3.3374,-3.3373,0,0,-3.2984,-3.3052,-3.3075,-3.3106,-3.3161,-3.3216,-3.3295,-3.3361,-3.3401,-3.3448,-3.3515,-3.3607,-3.358,-3.3617,-3.3615,-3.3671,-3.3785,-3.3633,-3.3634,-3.3662,-3.3925,-3.395,-3.3972,-3.3772,-3.3775,-3.3778,-3.3922,0,-3.3119,-3.3259,-3.3262,-3.3391,-3.3457,-3.3435,-3.3504,-3.3546,-3.3562,-3.3621,-3.3638,-3.3705,-3.3662,-3.3685,-3.3739,-3.376,-3.3838,-3.3749,-3.3835,-3.3838,-3.3826,-3.3997,-3.4022,-3.4156,-3.394,-3.3943,-3.3946,0,-3.3294,-3.3349,-3.3485,-3.3532,-3.356,-3.3622,-3.3685,-3.3741,-3.3788,-3.3796,-3.3838,-3.3828,-3.391,-3.3849,-3.3962,-3.3902,-3.3937,-3.3953,-3.3958,-3.3968,-3.39,-3.4013,-3.4199,-3.422,-3.3975,-3.3972,-3.397,0,-3.3403,-3.3511,-3.3606,-3.3633,-3.369,-3.3735,-3.3761,-3.3804,-3.3844,-3.3898,-3.3925,-3.3987,-3.4022,-3.4071,-3.4078,-3.4033,-3.4193,-3.4132,-3.4203,-3.4203,-3.4238,-3.4236,-3.4435,-3.4258,-3.4258,-3.4257,-3.4257,0,-3.3554,-3.3638,-3.3656,-3.3715,-3.381,-3.3812,-3.3906,-3.3928,-3.3967,-3.403,-3.4013,-3.4073,-3.4079,-3.414,-3.4146,-3.424,-3.4255,-3.4265,-3.4266,-3.4268,-3.4267,-3.4292,-3.4284,-3.4263,-3.4262,-3.4261,-3.426,0,-3.3692,-3.3707,-3.3811,-3.3857,-3.387,-3.3938,-3.3977,-3.4034,-3.4049,-3.4129,-3.4148,-3.4172,-3.4244,-3.4256,-3.434,-3.4344,-3.4457,-3.4447,-3.4442,-3.4441,-3.4512,-3.4506,-3.4735,-3.4766,-3.4567,-3.4569,-3.4571,0,-3.3788,-3.3853,-3.3906,-3.3948,-3.3977,-3.4043,-3.4085,-3.409,-3.4135,-3.4194,-3.4244,-3.4314,-3.4371,-3.4486,-3.4511,-3.4576,-3.4569,-3.4645,-3.4578,-3.4579,-3.4573,-3.4569,-3.4577,-3.4658,-3.466,-3.4662,-3.4663,0,-3.3958,-3.3963,-3.4024,-3.4089,-3.4139,-3.419,-3.4238,-3.4273,-3.4284,-3.4335,-3.4409,-3.4453,-3.454,-3.461,-3.4675,-3.4701,-3.4685,-3.4684,-3.4704,-3.4707,-3.4702,-3.4708,-3.4479,-3.4679,-3.4677,-3.4676,-3.4675,-3.4674,-3.4079,-3.4137,-3.4184,-3.4253,-3.429,-3.4336,-3.4392,-3.4415,-3.4477,-3.4549,-3.4548,-3.4629,-3.4676,-3.4761,-3.4792,-3.4856,-3.4831,-3.486,-3.4868,-3.4875,-3.4883,-3.4691,-3.4867,-3.4867,-3.4866,-3.4866,-3.4866,0,-3.425,-3.428,-3.4343,-3.4412,-3.4467,-3.4447,-3.45,-3.4547,-3.4619,-3.4664,-3.4721,-3.4806,-3.4875,-3.4906,-3.4973,-3.5019,-3.5013,-3.5037,-3.5034,-3.5041,-3.49,-3.4877,-3.504,-3.504,-3.504,-3.504,-3.504,-3.504,-3.4345,-3.4442,-3.4453,-3.4568,-3.4597,-3.4678,-3.471,-3.4752,-3.4788,-3.4886,-3.4943,-3.4963,-3.5002,-3.5073,-3.5136,-3.5143,-3.5169,-3.5197,-3.5201,-3.5068,-3.5051,-3.5034,-3.5012,-3.5202,-3.5202,-3.5337,-3.5338,-3.5339]}]]